EW7157 Weather Reports


time (UTC)temp
F
wind
direction
speed
knots
gust
knots
rain 1hr
in
rain 24hr
in
rain mn
in
humidity
%
barometer
mb
20260505130215 66 45 0.0 0.0 0.00 0.00 0.00 56 1034.0
20260505124314 64 270 0.0 0.0 0.00 0.00 0.00 61 1033.9
20260505123413 63 45 0.0 2.6 0.00 0.00 0.00 63 1033.9
20260505121414 61 135 0.0 0.0 0.00 0.00 0.00 68 1033.7
20260505120415 60 90 0.0 0.0 0.00 0.00 0.00 73 1033.7
20260505115416 59 90 0.0 0.0 0.00 0.00 0.00 75 1033.7
20260505114416 58 225 0.0 0.0 0.00 0.00 0.00 77 1033.7
20260505113416 57 270 0.0 0.0 0.00 0.00 0.00 79 1033.7
20260505112414 56 360 0.0 0.0 0.00 0.00 0.00 81 1033.5
20260505110513 56 360 0.0 0.0 0.00 0.00 0.00 80 1033.4
20260505101614 55 45 0.0 0.9 0.00 0.00 0.00 80 1033.1
20260505100614 55 45 0.0 0.0 0.00 0.00 0.00 81 1033.0
20260505095713 55 45 0.0 0.0 0.00 0.00 0.00 79 1032.8
20260505094715 55 45 0.0 0.0 0.00 0.00 0.00 79 1032.8
20260505093715 55 45 0.0 0.0 0.00 0.00 0.00 79 1032.7
20260505091615 55 45 0.0 0.0 0.00 0.00 0.00 78 1032.8
20260505091516 55 45 0.0 0.0 0.00 0.00 0.00 78 1032.8
20260505090514 55 135 0.0 0.0 0.00 0.00 0.00 78 1032.6
20260505085613 55 135 0.0 0.0 0.00 0.00 0.00 78 1032.6
20260505084613 56 135 0.0 0.0 0.00 0.00 0.00 77 1032.7
20260505083614 56 135 0.0 0.0 0.00 0.00 0.00 76 1032.8
20260505082616 56 135 0.0 0.0 0.00 0.00 0.00 76 1032.8
20260505081614 56 135 0.0 0.0 0.00 0.00 0.00 75 1032.5
20260505081516 56 135 0.0 0.0 0.00 0.00 0.00 75 1032.6
20260505075614 57 135 0.0 0.0 0.00 0.00 0.00 74 1032.6
20260505073615 57 135 0.0 0.0 0.00 0.00 0.00 72 1032.8
20260505072615 57 135 0.0 0.0 0.00 0.00 0.00 72 1032.8
20260505072514 57 135 0.0 0.0 0.00 0.00 0.00 71 1032.8
20260505072414 57 135 0.0 0.0 0.00 0.00 0.00 71 1032.7
20260505071514 58 135 0.0 0.0 0.00 0.00 0.00 71 1032.8
20260505070517 58 135 0.0 0.0 0.00 0.00 0.00 71 1032.6
20260505064515 58 45 0.0 0.0 0.00 0.00 0.00 70 1032.7
20260505063514 58 45 0.0 0.0 0.00 0.00 0.00 69 1032.7
20260505062516 58 45 0.0 0.0 0.00 0.00 0.00 68 1032.5
20260505062417 58 45 0.0 0.9 0.00 0.00 0.00 67 1032.6
20260505061414 58 45 0.0 1.7 0.00 0.00 0.00 67 1032.6
20260505060415 59 45 0.0 0.9 0.00 0.00 0.00 67 1032.5
20260505054415 59 270 0.0 0.0 0.00 0.00 0.00 63 1032.6
20260505053513 60 315 0.0 0.0 0.00 0.00 0.00 63 1032.7
20260505052516 60 315 0.0 0.9 0.00 0.00 0.00 63 1032.8
20260505051515 60 315 0.0 0.0 0.00 0.00 0.00 61 1032.8
20260505040714 59 270 0.0 0.0 0.00 0.00 0.00 59 1032.7
20260505035723 59 45 0.0 0.0 0.00 0.00 0.00 58 1032.6
20260505034822 60 180 0.0 0.0 0.00 0.00 0.00 57 1032.6
20260505034723 60 180 0.0 0.0 0.00 0.00 0.00 56 1032.6
20260505033722 60 233 0.0 0.0 0.00 0.00 0.00 53 1032.6
20260505031726 60 180 0.0 0.0 0.00 0.00 0.00 52 1032.8
20260505030824 60 315 0.0 0.9 0.00 0.00 0.00 54 1032.7
20260505025922 60 315 0.0 0.0 0.00 0.00 0.00 54 1032.7
20260505024924 61 315 0.0 0.0 0.00 0.00 0.00 52 1032.9
20260505023926 60 315 0.0 0.0 0.00 0.00 0.00 54 1033.0
20260505022022 61 270 0.0 0.0 0.00 0.00 0.00 54 1033.0
20260505021024 61 360 0.0 0.9 0.00 0.00 0.00 54 1033.0
20260505020023 62 360 0.0 0.0 0.00 0.00 0.00 52 1032.9
20260505015923 62 360 0.0 0.0 0.00 0.00 0.00 52 1033.0
20260505015825 62 360 0.0 0.0 0.00 0.00 0.00 51 1032.9
20260505014826 62 360 0.0 1.7 0.00 0.00 0.00 51 1033.0
20260505013924 61 337 0.0 0.9 0.00 0.00 0.00 52 1033.0
20260505013823 61 337 0.0 0.0 0.00 0.00 0.00 53 1032.9
20260505010922 60 112 0.0 0.0 0.00 0.00 0.00 57 1032.6
20260505005923 60 112 0.0 0.0 0.00 0.00 0.00 54 1032.6
20260505003925 62 112 0.0 0.0 0.00 0.00 0.00 49 1032.3
20260505002923 63 112 0.0 0.0 0.00 0.00 0.00 46 1032.2
20260505001926 64 112 0.0 0.0 0.00 0.00 0.00 44 1032.1
20260505000825 65 112 0.0 0.0 0.00 0.00 0.00 41 1032.2
20260504233823 67 112 0.0 0.0 0.00 0.00 0.00 37 1031.8
20260504231823 68 45 0.0 1.7 0.00 0.00 0.00 38 1031.8
20260504225825 68 45 0.0 0.0 0.00 0.00 0.00 36 1031.7
20260504225724 69 45 0.0 0.0 0.00 0.00 0.00 35 1031.7
20260504224822 69 360 0.0 0.0 0.00 0.00 0.00 34 1031.7
20260504224724 69 360 0.0 0.9 0.00 0.00 0.00 35 1031.6
20260504223724 69 360 0.0 5.2 0.00 0.00 0.00 35 1031.7
20260504222725 69 315 0.0 0.9 0.00 0.00 0.00 35 1031.8
20260504222627 69 315 0.0 0.9 0.00 0.00 0.00 36 1031.8
20260504221624 70 315 0.0 0.0 0.00 0.00 0.00 35 1031.8
20260504220624 70 352 0.0 2.6 0.00 0.00 0.00 35 1031.8
20260504220524 70 360 0.0 0.0 0.00 0.00 0.00 35 1031.8
20260504215524 70 134 0.0 1.7 0.00 0.00 0.00 34 1031.9
20260504214524 71 135 0.0 1.7 0.00 0.00 0.00 33 1032.1
20260504214424 71 135 0.0 0.0 0.00 0.00 0.00 34 1032.0
20260504213423 71 75 0.0 2.6 0.00 0.00 0.00 32 1032.0
20260504212422 71 180 0.0 0.0 0.00 0.00 0.00 32 1032.1
20260504212323 71 180 0.0 0.0 0.00 0.00 0.00 33 1032.0
20260504211422 72 45 0.0 0.9 0.00 0.00 0.00 31 1032.0
20260504210425 73 18 0.0 0.0 0.00 0.00 0.00 31 1031.9
20260504205424 73 45 0.0 0.0 0.00 0.00 0.00 30 1032.1
20260504205325 73 45 0.0 0.9 0.00 0.00 0.00 30 1032.1
20260504203425 76 272 0.0 0.9 0.00 0.00 0.00 28 1032.1
20260504202424 76 177 0.0 3.5 0.00 0.00 0.00 27 1032.1
20260504202324 76 180 0.0 0.0 0.00 0.00 0.00 26 1032.1
20260504202222 76 180 0.0 1.7 0.00 0.00 0.00 27 1032.0
20260504201224 77 14 0.9 4.3 0.00 0.00 0.00 26 1032.2
20260504200323 77 153 0.0 1.7 0.00 0.00 0.00 27 1032.2
20260504200224 77 213 0.9 7.8 0.00 0.00 0.00 27 1032.2
20260504194322 77 360 0.0 0.0 0.00 0.00 0.00 26 1032.2
20260504192322 77 79 0.0 1.7 0.00 0.00 0.00 27 1032.5
20260504191422 76 261 0.0 0.9 0.00 0.00 0.00 26 1032.5
20260504185423 76 360 0.0 0.0 0.00 0.00 0.00 26 1032.8
20260504184423 76 307 0.9 2.6 0.00 0.00 0.00 27 1033.0
20260504183424 77 2 0.0 0.0 0.00 0.00 0.00 28 1033.2
20260504182423 76 45 0.0 0.0 0.00 0.00 0.00 29 1033.3
20260504181426 75 247 0.0 0.9 0.00 0.00 0.00 28 1033.3
20260504175423 75 24 0.0 0.9 0.00 0.00 0.00 29 1033.7
20260504174424 75 32 0.0 1.7 0.00 0.00 0.00 29 1033.9
20260504173424 75 235 0.0 3.5 0.00 0.00 0.00 28 1034.0
20260504172523 74 337 0.0 0.9 0.00 0.00 0.00 29 1034.1
20260504171523 74 157 0.0 0.9 0.00 0.00 0.00 28 1034.2
20260504170523 74 45 0.0 0.9 0.00 0.00 0.00 30 1034.3
20260504160424 73 135 0.0 0.0 0.00 0.00 0.00 31 1035.3
20260504150425 71 247 0.0 0.9 0.00 0.00 0.00 34 1036.0
20260504140424 67 312 0.0 0.9 0.00 0.00 0.00 44 1036.0